[[{"header":{"parameterUnit":"m.s-1","parameterCategory":1,"la1":30.2991,"la2":30.254,"lo1":-89.0895,"lo2":-89.0444,"dy":0.0017,"dx":0.0017,"nx":28,"ny":28,"refTime":"2023-08-12T21:00:00:Z","depth":0,"parameterNumber":2,"parameterNumberName":"U-component_of_WINDS"},"data":[0,0,0,0,0,0,0,0,0,0,0,0,0,0,0,0,0,0,0,0,0,0,0,0,0,0,0,0,0,0,0,0,0,0,0,0,0,0,0,0,0,0,0,0,0,0,0,0,0,0,0,0,0,0,0,0,0,0,2.2909,2.2911,0,2.3033,2.3035,2.3036,2.3041,2.304,2.3038,2.3037,2.3162,2.3167,2.3172,0,0,0,0,0,0,0,0,0,0,0,0,0,2.2674,2.2679,2.2909,2.2911,2.2912,2.3033,2.3035,2.3036,2.3042,2.304,2.3038,2.3036,2.3161,2.3166,2.3172,0,0,0,0,0,0,0,0,0,0,0,0,0,2.2785,2.268,2.2909,2.293,2.2933,2.3033,2.3035,2.3037,2.3042,2.304,2.3038,2.3036,2.3159,2.3166,2.3173,2.326,0,0,2.3194,2.3197,0,0,0,0,0,0,0,0,2.2779,2.2794,2.2925,2.2928,2.2932,2.302,2.2998,2.3112,2.3043,2.3,2.3037,2.3034,2.3117,2.3127,2.3155,2.3266,2.3271,2.3195,2.3199,2.3202,2.3204,0,0,0,0,0,0,0,2.2771,2.2788,2.2958,2.2927,2.2931,2.2932,2.2945,2.3019,2.3069,2.3004,2.3005,2.3019,2.3118,2.3148,2.3158,2.3273,2.3195,2.3201,2.3205,2.3208,2.346,2.3462,0,0,0,0,0,0,2.276,2.2782,2.2954,2.2962,2.2848,2.2938,2.2953,2.2994,2.3068,2.3078,2.3021,2.3019,2.3137,2.315,2.3162,2.3268,2.3202,2.3209,2.3213,2.3458,2.3461,2.3463,0,0,0,0,0,0,2.2755,2.2775,2.2949,2.2872,2.2894,2.2944,2.299,2.2997,2.3027,2.3081,2.309,2.3043,2.3136,2.3152,2.3235,2.3272,2.3212,2.3218,2.3455,2.3458,2.3462,2.3481,0,0,0,0,0,0,2.2748,2.2773,2.2808,2.2873,2.2899,2.3021,2.2993,2.3001,2.304,2.3038,2.3104,2.3113,2.3135,2.3225,2.3242,2.3281,2.3224,2.3451,2.3456,2.3461,2.3477,2.3485,2.3491,0,0,0,0,0,2.2739,2.2808,2.2809,2.283,2.2943,2.3023,2.3038,2.3063,2.3043,2.3077,2.3111,2.3111,2.3266,2.3233,2.3253,2.3294,2.3449,2.3455,2.346,2.3474,2.3483,2.3491,0,0,0,0,0,0,2.2746,2.2817,2.2819,2.2911,2.2961,2.3024,2.3068,2.3072,2.3129,2.3125,2.3153,2.3168,2.325,2.3281,2.3243,2.3382,2.3355,2.3365,2.3359,2.3368,2.3375,2.3365,2.323,0,0,0,0,0,2.2758,2.2818,2.2877,2.2953,2.2978,2.3019,2.3055,2.307,2.3122,2.3143,2.3184,2.3234,2.3294,2.3333,2.3391,2.3482,2.3495,2.352,2.3527,2.3532,2.354,2.3588,2.36,2.3481,2.3481,2.3481,0,0,2.2783,2.283,2.2866,2.2955,2.2995,2.3056,2.3036,2.3102,2.3146,2.3153,2.3233,2.3265,2.3323,2.341,2.345,2.3438,2.3576,2.354,2.3544,2.3548,2.3595,2.3606,2.3616,2.3485,2.3484,2.3484,0,0,2.2861,2.2903,2.2969,2.301,2.3071,2.3098,2.3114,2.3176,2.3197,2.3279,2.3284,2.3338,2.3441,2.3481,2.3515,2.3606,2.3607,2.3625,2.3661,2.3708,2.3717,2.3726,2.3756,2.3767,2.3632,2.3632,2.3633,0,2.2884,2.2977,2.3003,2.3068,2.3106,2.3115,2.3181,2.322,2.3297,2.3322,2.3308,2.3436,2.3476,2.3571,2.3593,2.3621,2.3639,2.3617,2.3714,2.3723,2.3731,2.376,2.3772,2.3634,2.3634,2.3634,2.3634,0,2.3002,2.3066,2.3112,2.3186,2.323,2.3295,2.333,2.3371,2.3381,2.3409,2.3491,2.3539,2.3606,2.363,2.3642,2.3727,2.3717,2.3708,2.3681,2.3743,2.3771,2.3783,2.3636,2.3636,2.3635,2.3635,0,0,2.3087,2.3174,2.319,2.3223,2.3291,2.334,2.3406,2.3472,2.3505,2.3558,2.3612,2.3698,2.369,2.3728,2.3744,2.3786,2.3852,2.3772,2.3773,2.3783,2.3947,2.3952,2.3965,2.3854,2.3856,2.3858,2.3941,0,2.317,2.3287,2.3312,2.3412,2.347,2.3479,2.3535,2.3582,2.361,2.3662,2.3693,2.3753,2.3738,2.3761,2.3802,2.3835,2.3885,2.383,2.3903,2.3905,2.3887,2.398,2.3986,2.4063,2.3953,2.3955,2.3956,0,2.3283,2.3338,2.3444,2.3503,2.3528,2.3579,2.364,2.3691,2.3744,2.3761,2.3803,2.3814,2.3881,2.3852,2.3943,2.3905,2.3936,2.3957,2.3961,2.3967,2.3933,2.3988,2.4088,2.4099,2.3974,2.3973,2.3971,0,2.3332,2.3433,2.3509,2.3537,2.3608,2.3643,2.3674,2.3724,2.3762,2.3816,2.384,2.39,2.3933,2.3979,2.4006,2.3983,2.4095,2.4068,2.4109,2.4109,2.4132,2.413,2.4237,2.4154,2.4154,2.4154,2.4154,0,2.3421,2.3485,2.3531,2.3578,2.3649,2.3677,2.3747,2.3777,2.3822,2.3874,2.3885,2.3933,2.3967,2.4019,2.404,2.4112,2.4127,2.4141,2.4146,2.414,2.4137,2.4159,2.4154,2.4157,2.4156,2.4156,2.4155,0,2.3487,2.3521,2.3604,2.3664,2.3681,2.3731,2.3781,2.3826,2.3854,2.3919,2.3936,2.3979,2.4041,2.4072,2.415,2.4164,2.4244,2.4246,2.4226,2.4227,2.4266,2.4261,2.439,2.4408,2.4315,2.4316,2.4316,0,2.3542,2.3591,2.3656,2.3692,2.3724,2.3781,2.3819,2.3848,2.3887,2.395,2.3987,2.405,2.4101,2.42,2.4238,2.4296,2.4299,2.434,2.4308,2.4299,2.4298,2.4294,2.4298,2.4345,2.4346,2.4347,2.4348,0,2.3634,2.3648,2.3703,2.3763,2.3808,2.3857,2.3906,2.3934,2.397,2.4013,2.4077,2.4117,2.4196,2.4257,2.4319,2.4349,2.4354,2.4358,2.437,2.4363,2.4349,2.4355,2.424,2.4354,2.4354,2.4353,2.4353,2.4353,2.3695,2.3738,2.3791,2.3851,2.389,2.3935,2.3979,2.4012,2.4066,2.4132,2.4146,2.4213,2.4263,2.4346,2.4379,2.4431,2.4422,2.444,2.4444,2.4448,2.4449,2.4342,2.4442,2.4442,2.4442,2.4442,2.4442,0,2.3786,2.382,2.3875,2.3942,2.3989,2.399,2.4043,2.4082,2.4141,2.4188,2.4238,2.431,2.437,2.4412,2.4472,2.4505,2.4509,2.452,2.4517,2.4523,2.4454,2.4437,2.4516,2.4516,2.4516,2.4516,2.4516,2.4516,2.3838,2.3912,2.3932,2.4024,2.4057,2.4123,2.4153,2.4194,2.4231,2.4311,2.4361,2.4388,2.4432,2.4495,2.4549,2.456,2.4581,2.4592,2.4602,2.4536,2.4529,2.4521,2.4505,2.4596,2.4597,2.4667,2.4667,2.4668]},{"header":{"parameterUnit":"m.s-1","parameterCategory":1,"la1":30.2991,"la2":30.254,"lo1":-89.0895,"lo2":-89.0444,"dy":0.0017,"dx":0.0017,"nx":28,"ny":28,"refTime":"2023-08-12T21:00:00:Z","depth":0,"parameterNumber":3,"parameterNumberName":"V-component_of_WINDS"},"data":[0,0,0,0,0,0,0,0,0,0,0,0,0,0,0,0,0,0,0,0,0,0,0,0,0,0,0,0,0,0,0,0,0,0,0,0,0,0,0,0,0,0,0,0,0,0,0,0,0,0,0,0,0,0,0,0,0,0,5.5195,5.5195,0,5.5177,5.5176,5.5176,5.5083,5.5081,5.5078,5.5076,5.5058,5.506,5.5061,0,0,0,0,0,0,0,0,0,0,0,0,0,5.5152,5.5153,5.5195,5.5195,5.5195,5.5177,5.5176,5.5176,5.5083,5.508,5.5078,5.5075,5.5058,5.506,5.5061,0,0,0,0,0,0,0,0,0,0,0,0,0,5.5156,5.5153,5.5195,5.5146,5.5142,5.5177,5.5176,5.5176,5.5084,5.508,5.5077,5.5074,5.5057,5.5059,5.5062,5.5143,0,0,5.5069,5.507,0,0,0,0,0,0,0,0,5.5156,5.5157,5.5154,5.515,5.5145,5.5129,5.5154,5.5165,5.5085,5.5106,5.5076,5.5072,5.5084,5.5084,5.5088,5.5142,5.5141,5.5069,5.5071,5.5072,5.5072,0,0,0,0,0,0,0,5.5155,5.5158,5.5188,5.5154,5.5148,5.5125,5.5122,5.5156,5.5114,5.5104,5.5097,5.5096,5.5081,5.5086,5.5087,5.5141,5.5069,5.5071,5.5073,5.5074,5.5259,5.5263,0,0,0,0,0,0,5.5162,5.5158,5.5188,5.5187,5.5142,5.5129,5.5125,5.5137,5.5113,5.5106,5.5099,5.5092,5.5084,5.5084,5.5086,5.5178,5.5072,5.5074,5.5075,5.5256,5.526,5.5264,0,0,0,0,0,0,5.5161,5.5165,5.5189,5.5171,5.5172,5.5133,5.5147,5.5139,5.5143,5.511,5.5102,5.5111,5.5081,5.5083,5.5129,5.5176,5.5075,5.5077,5.5252,5.5257,5.5262,5.5364,0,0,0,0,0,0,5.516,5.5166,5.5196,5.5172,5.5173,5.5233,5.515,5.5141,5.5147,5.5138,5.5119,5.5113,5.5079,5.5126,5.5131,5.5178,5.5079,5.5247,5.5254,5.526,5.5356,5.5372,5.5386,0,0,0,0,0,5.5159,5.5226,5.5198,5.5202,5.521,5.5236,5.5236,5.5195,5.5152,5.5181,5.516,5.5113,5.5171,5.5131,5.5137,5.5184,5.5244,5.5252,5.526,5.5349,5.5369,5.5385,0,0,0,0,0,0,5.5257,5.5222,5.5191,5.5252,5.5247,5.522,5.5256,5.5217,5.5225,5.5216,5.5165,5.5161,5.5215,5.5205,5.5162,5.5261,5.5199,5.5209,5.5266,5.5284,5.5298,5.5299,5.5081,0,0,0,0,0,5.5286,5.5309,5.5277,5.5334,5.5333,5.5296,5.5305,5.5274,5.5267,5.5265,5.5247,5.5242,5.5259,5.5271,5.5285,5.5355,5.5349,5.539,5.5405,5.5417,5.5425,5.546,5.5478,5.529,5.529,5.5289,0,0,5.5345,5.5329,5.5347,5.5353,5.5346,5.5371,5.5295,5.5325,5.5342,5.5269,5.5311,5.5298,5.529,5.5348,5.5373,5.5341,5.5476,5.5427,5.5437,5.5439,5.547,5.5488,5.5504,5.5295,5.5294,5.5293,0,0,5.5466,5.5457,5.5502,5.5496,5.5486,5.5461,5.5472,5.545,5.5438,5.548,5.5425,5.5446,5.5477,5.5472,5.5475,5.5594,5.5551,5.56,5.5676,5.5711,5.5726,5.5739,5.578,5.5796,5.5609,5.5609,5.5609,0,5.5541,5.5576,5.5531,5.5564,5.5568,5.5503,5.5548,5.5545,5.5541,5.5545,5.551,5.5546,5.5536,5.5592,5.5621,5.5625,5.5636,5.5601,5.5728,5.574,5.5751,5.579,5.5806,5.5615,5.5614,5.5614,5.5613,0,5.5668,5.5694,5.5732,5.5728,5.5736,5.5776,5.5737,5.5751,5.5719,5.5698,5.5741,5.5726,5.5736,5.5747,5.5716,5.5798,5.5779,5.5737,5.5673,5.5776,5.5811,5.5826,5.5623,5.5621,5.5619,5.5618,0,0,5.5849,5.5819,5.5834,5.5831,5.5815,5.5834,5.5871,5.5879,5.5892,5.5891,5.592,5.5947,5.5907,5.591,5.5879,5.591,5.6003,5.5863,5.5862,5.5888,5.6092,5.6122,5.614,5.5976,5.5978,5.5981,5.6092,0,5.5963,5.6023,5.5983,5.6049,5.6071,5.601,5.6042,5.6036,5.6017,5.6033,5.6012,5.6031,5.5978,5.5979,5.6007,5.5986,5.6043,5.5978,5.6002,5.6003,5.6004,5.6159,5.6192,5.6297,5.6106,5.6108,5.611,0,5.6104,5.6108,5.6176,5.6155,5.6163,5.6192,5.6196,5.6213,5.6205,5.6188,5.6191,5.6152,5.6186,5.6125,5.6172,5.6128,5.6136,5.6127,5.613,5.6129,5.6061,5.6161,5.633,5.6346,5.6131,5.613,5.6128,0,5.6227,5.625,5.6293,5.6293,5.627,5.6291,5.6283,5.6271,5.6279,5.6283,5.6287,5.6296,5.63,5.6308,5.6272,5.6231,5.6323,5.6259,5.631,5.6311,5.6331,5.633,5.6502,5.6339,5.6339,5.6338,5.6338,0,5.6357,5.6401,5.6348,5.6375,5.6422,5.6376,5.6424,5.641,5.64,5.6423,5.6371,5.6394,5.6346,5.6363,5.6336,5.6378,5.6381,5.6369,5.636,5.6372,5.6374,5.6375,5.6367,5.6343,5.6342,5.6341,5.634,0,5.6502,5.6468,5.6511,5.6486,5.648,5.6516,5.6494,5.6518,5.6495,5.6525,5.6529,5.6494,5.6512,5.6478,5.6492,5.6473,5.6532,5.6513,5.6535,5.6528,5.6581,5.6576,5.6759,5.678,5.6605,5.6607,5.6608,0,5.6587,5.6618,5.6596,5.6607,5.6601,5.662,5.6627,5.6584,5.6593,5.6586,5.6611,5.6625,5.6633,5.6665,5.6641,5.6652,5.6632,5.6696,5.6633,5.6644,5.6631,5.6629,5.6632,5.6708,5.671,5.6712,5.6713,0,5.674,5.6721,5.6733,5.6739,5.6749,5.6752,5.6751,5.6763,5.6717,5.6731,5.6748,5.6755,5.6769,5.6783,5.6788,5.6779,5.6739,5.6733,5.6745,5.6757,5.6767,5.6761,5.6568,5.6729,5.6727,5.6726,5.6725,5.6725,5.6856,5.6881,5.6869,5.6883,5.6878,5.6878,5.6899,5.6879,5.6893,5.69,5.6874,5.6897,5.6888,5.689,5.6886,5.6904,5.6876,5.6894,5.6898,5.6903,5.691,5.6766,5.6905,5.6905,5.6904,5.6904,5.6903,0,5.7005,5.6994,5.7008,5.7008,5.7019,5.698,5.6977,5.699,5.701,5.7005,5.7014,5.7035,5.7048,5.7026,5.7035,5.7054,5.7036,5.7058,5.7055,5.7054,5.6936,5.6924,5.7073,5.7073,5.7073,5.7073,5.7073,5.7072,5.7083,5.7123,5.7104,5.7141,5.713,5.7151,5.7153,5.7153,5.7148,5.7173,5.7183,5.7168,5.7156,5.7165,5.7176,5.7169,5.7174,5.7203,5.7189,5.7079,5.7062,5.7047,5.7035,5.7205,5.7205,5.7306,5.7306,5.7307]}]]